,,PA_Meas_PMT16A,,PR_Meas_QMR101_102,,RH_Meas_QMH101,,SR_Meas_QMS101,,TA_Meas_QMH101,,GenWind,,GenWind,
time,status,PA,status,PR,status,RH,status,SR,status,TA,status,DirAvg,status,SpdAvg,
2011-03-31, 00:00:05,VALID,918.251,VALID,0,VALID,96.6802,VALID,0,VALID,19.4493,VALID,47,VALID,0.783203,
2011-03-31, 00:01:05,VALID,918.288,VALID,0,VALID,96.7259,VALID,0.107441,VALID,19.4283,VALID,70,VALID,0.561328,
2011-03-31, 00:02:05,VALID,918.257,VALID,0,VALID,96.7107,VALID,0,VALID,19.4298,VALID,74,VALID,0.778516,
2011-03-31, 00:03:05,VALID,918.246,VALID,0,VALID,96.7411,VALID,0,VALID,19.4283,VALID,62,VALID,0.809766,
2011-03-31, 00:04:05,VALID,918.262,VALID,0,VALID,96.7564,VALID,0,VALID,19.4478,VALID,62,VALID,0.665625,
2011-03-31, 00:05:05,VALID,918.192,VALID,0,VALID,96.7488,VALID,0.107441,VALID,19.4688,VALID,40,VALID,1.92813,
2011-03-31, 00:06:05,VALID,918.161,VALID,0,VALID,96.7945,VALID,0,VALID,19.5093,VALID,41,VALID,0.933203,
2011-03-31, 00:07:05,VALID,918.106,VALID,0,VALID,96.7793,VALID,0,VALID,19.4898,VALID,40,VALID,1.04844,
2011-03-31, 00:08:05,VALID,918.075,VALID,0,VALID,96.7945,VALID,0,VALID,19.5093,VALID,40,VALID,0.590625,
2011-03-31, 00:09:05,VALID,918.029,VALID,0,VALID,96.7793,VALID,0,VALID,19.4898,VALID,30,VALID,1.89023,
2011-03-31, 00:10:05,VALID,918.023,VALID,0,VALID,96.8174,VALID,0,VALID,19.5288,VALID,23,VALID,1.65273,
2011-03-31, 00:11:05,VALID,918.014,VALID,0,VALID,96.7945,VALID,0,VALID,19.5288,VALID,37,VALID,1.80234,
2011-03-31, 00:12:05,VALID,918.023,VALID,0,VALID,96.8403,VALID,0,VALID,19.5483,VALID,64,VALID,0.644922,
2011-03-31, 00:13:05,VALID,917.952,VALID,0,VALID,96.7945,VALID,0,VALID,19.5483,VALID,64,VALID,0.802734,
2011-03-31, 00:14:05,VALID,917.963,VALID,0,VALID,96.7793,VALID,0,VALID,19.5288,VALID,64,VALID,0.541016,
2011-03-31, 00:15:05,VALID,917.979,VALID,0,VALID,96.825,VALID,0,VALID,19.5483,VALID,75,VALID,0.627734,
2011-03-31, 00:16:05,VALID,917.991,VALID,0,VALID,96.7945,VALID,0,VALID,19.5483,VALID,143,VALID,0.547266,
2011-03-31, 00:17:05,VALID,917.96,VALID,0,VALID,96.825,VALID,0,VALID,19.5273,VALID,52,VALID,0.719141,
2011-03-31, 00:18:05,VALID,917.938,VALID,0,VALID,96.8021,VALID,0,VALID,19.5288,VALID,79,VALID,1.02148,
2011-03-31, 00:19:05,VALID,917.902,VALID,0,VALID,96.7945,VALID,0,VALID,19.5078,VALID,87,VALID,0.339063,
2011-03-31, 00:20:05,VALID,917.859,VALID,0,VALID,96.825,VALID,0,VALID,19.5078,VALID,24,VALID,1.61016,
2011-03-31, 00:21:05,VALID,917.849,VALID,0,VALID,96.8174,VALID,0,VALID,19.5273,VALID,26,VALID,1.80977,
2011-03-31, 00:22:05,VALID,917.874,VALID,0,VALID,96.8403,VALID,0,VALID,19.5453,VALID,27,VALID,0.939062,
2011-03-31, 00:23:05,VALID,917.853,VALID,0,VALID,96.8326,VALID,0,VALID,19.5468,VALID,46,VALID,1.37031,
2011-03-31, 00:24:05,VALID,917.806,VALID,0,VALID,96.8174,VALID,0.107441,VALID,19.5663,VALID,31,VALID,0.887891,
2011-03-31, 00:25:05,VALID,917.748,VALID,0,VALID,96.8174,VALID,0,VALID,19.5453,VALID,359,VALID,1.15117,
2011-03-31, 00:26:05,VALID,917.75,VALID,0,VALID,96.8403,VALID,0,VALID,19.5648,VALID,28,VALID,1.51406,
2011-03-31, 00:27:05,VALID,917.79,VALID,0,VALID,96.8707,VALID,0,VALID,19.6053,VALID,35,VALID,0.158594,
2011-03-31, 00:28:05,VALID,917.75,VALID,0,VALID,96.8555,VALID,0,VALID,19.5648,VALID,21,VALID,1.94219,
2011-03-31, 00:29:05,VALID,917.685,VALID,0,VALID,96.8631,VALID,0.107441,VALID,19.6038,VALID,35,VALID,1.00547,
2011-03-31, 00:30:05,VALID,917.692,VALID,0,VALID,96.8479,VALID,0,VALID,19.6038,VALID,35,VALID,0.677734,
2011-03-31, 00:31:05,VALID,917.626,VALID,0,VALID,96.8479,VALID,0.107441,VALID,19.6038,VALID,33,VALID,2.00742,
2011-03-31, 00:32:05,VALID,917.66,VALID,0,VALID,96.8631,VALID,0,VALID,19.6248,VALID,41,VALID,1.43125,
2011-03-31, 00:33:05,VALID,917.65,VALID,0,VALID,96.9012,VALID,0.107441,VALID,19.6818,VALID,360,VALID,0.579687,
2011-03-31, 00:34:05,VALID,917.609,VALID,0,VALID,96.8707,VALID,0.107441,VALID,19.6428,VALID,360,VALID,0.688281,
2011-03-31, 00:35:05,VALID,917.537,VALID,0,VALID,96.886,VALID,0,VALID,19.6623,VALID,357,VALID,1.63047,
2011-03-31, 00:36:05,VALID,917.535,VALID,0,VALID,96.9241,VALID,0,VALID,19.6833,VALID,360,VALID,0.812891,
2011-03-31, 00:37:05,VALID,917.569,VALID,0,VALID,96.886,VALID,0,VALID,19.6833,VALID,190,VALID,0.446875,
2011-03-31, 00:38:05,VALID,917.594,VALID,0,VALID,96.9241,VALID,0,VALID,19.7028,VALID,216,VALID,0.582422,
2011-03-31, 00:39:05,VALID,917.639,VALID,0,VALID,96.9012,VALID,0,VALID,19.7223,VALID,161,VALID,1.34375,
2011-03-31, 00:40:05,VALID,917.603,VALID,0,VALID,96.8936,VALID,0,VALID,19.7418,VALID,44,VALID,0.736328,
2011-03-31, 00:41:05,VALID,917.617,VALID,0,VALID,96.9089,VALID,0,VALID,19.7418,VALID,255,VALID,1.08945,
2011-03-31, 00:42:05,VALID,917.58,VALID,0,VALID,96.8936,VALID,0,VALID,19.7418,VALID,200,VALID,0.817578,
2011-03-31, 00:43:05,VALID,917.59,VALID,0,VALID,96.9317,VALID,0,VALID,19.7613,VALID,2,VALID,1.05977,
2011-03-31, 00:44:05,VALID,917.58,VALID,0,VALID,96.9317,VALID,0,VALID,19.7808,VALID,110,VALID,1.03594,
2011-03-31, 00:45:05,VALID,917.588,VALID,0,VALID,96.947,VALID,0,VALID,19.8213,VALID,22,VALID,1.41094,
2011-03-31, 00:46:05,VALID,917.533,VALID,0,VALID,96.9317,VALID,0,VALID,19.8003,VALID,86,VALID,1.24805,
2011-03-31, 00:47:05,VALID,917.568,VALID,0,VALID,96.9241,VALID,0,VALID,19.8003,VALID,53,VALID,0.872266,
2011-03-31, 00:48:05,VALID,917.539,VALID,0.2,VALID,96.9241,VALID,0,VALID,19.8198,VALID,346,VALID,1.51836,
2011-03-31, 00:49:05,VALID,917.516,VALID,0,VALID,96.9012,VALID,0,VALID,19.8003,VALID,303,VALID,0.733203,
2011-03-31, 00:50:05,VALID,917.507,VALID,0,VALID,96.9012,VALID,0,VALID,19.8198,VALID,249,VALID,1.03398,
2011-03-31, 00:51:05,VALID,917.497,VALID,0,VALID,96.8784,VALID,0,VALID,19.8408,VALID,138,VALID,1.65078,
2011-03-31, 00:52:05,VALID,917.482,VALID,0,VALID,96.9165,VALID,0,VALID,19.8603,VALID,350,VALID,1.78086,
2011-03-31, 00:53:05,VALID,917.445,VALID,0,VALID,96.9012,VALID,0,VALID,19.8393,VALID,105,VALID,1.09141,
2011-03-31, 00:54:05,VALID,917.431,VALID,0,VALID,96.9394,VALID,0,VALID,19.8588,VALID,10,VALID,1.60586,
2011-03-31, 00:55:05,VALID,917.499,VALID,0,VALID,96.9241,VALID,0,VALID,19.8993,VALID,1,VALID,0.815234,
2011-03-31, 00:56:05,VALID,917.427,VALID,0,VALID,96.9012,VALID,0,VALID,19.8783,VALID,42,VALID,1.57578,
2011-03-31, 00:57:05,VALID,917.42,VALID,0,VALID,96.9165,VALID,0,VALID,19.8783,VALID,33,VALID,1.25117,
2011-03-31, 00:58:05,VALID,917.337,VALID,0,VALID,96.947,VALID,0,VALID,19.8783,VALID,112,VALID,1.45898,
2011-03-31, 00:59:05,VALID,917.325,VALID,0,VALID,96.9241,VALID,0,VALID,19.8783,VALID,333,VALID,1.00469,
2011-03-31, 01:00:05,VALID,917.315,VALID,0,VALID,96.9394,VALID,0,VALID,19.8783,VALID,38,VALID,2.33047,
2011-03-31, 01:01:05,VALID,917.272,VALID,0,VALID,96.9012,VALID,0,VALID,19.8783,VALID,44,VALID,2.0582,
2011-03-31, 01:02:05,VALID,917.34,VALID,0,VALID,96.9165,VALID,0,VALID,19.8783,VALID,25,VALID,1.41914,
2011-03-31, 01:03:05,VALID,917.398,VALID,0,VALID,96.9317,VALID,0,VALID,19.8783,VALID,293,VALID,0.860937,
2011-03-31, 01:04:05,VALID,917.387,VALID,0,VALID,96.9089,VALID,0,VALID,19.8588,VALID,77,VALID,1.20469,
2011-03-31, 01:05:05,VALID,917.36,VALID,0,VALID,96.886,VALID,0,VALID,19.8393,VALID,285,VALID,2.37422,
2011-03-31, 01:06:05,VALID,917.285,VALID,0,VALID,96.9012,VALID,0,VALID,19.8393,VALID,259,VALID,0.813281,
2011-03-31, 01:07:05,VALID,917.3,VALID,0,VALID,96.9165,VALID,0,VALID,19.8393,VALID,40,VALID,2.36758,
2011-03-31, 01:08:05,VALID,917.288,VALID,0,VALID,96.9241,VALID,0,VALID,19.8393,VALID,64,VALID,0.728906,
2011-03-31, 01:09:05,VALID,917.331,VALID,0,VALID,96.9012,VALID,0,VALID,19.8393,VALID,354,VALID,1.26875,
2011-03-31, 01:10:05,VALID,917.305,VALID,0,VALID,96.8631,VALID,0,VALID,19.8198,VALID,25,VALID,1.94805,
2011-03-31, 01:11:05,VALID,917.247,VALID,0,VALID,96.9012,VALID,0,VALID,19.8198,VALID,320,VALID,2.75273,
2011-03-31, 01:12:05,VALID,917.218,VALID,0,VALID,96.9089,VALID,0,VALID,19.8393,VALID,27,VALID,2.06992,
2011-03-31, 01:13:05,VALID,917.218,VALID,0,VALID,96.9089,VALID,0,VALID,19.8198,VALID,60,VALID,1.50977,
2011-03-31, 01:14:05,VALID,917.197,VALID,0,VALID,96.9165,VALID,0,VALID,19.8198,VALID,41,VALID,2.35313,
2011-03-31, 01:15:05,VALID,917.217,VALID,0,VALID,96.886,VALID,0,VALID,19.8198,VALID,130,VALID,1.15625,
2011-03-31, 01:16:05,VALID,917.218,VALID,0,VALID,96.8936,VALID,0,VALID,19.8198,VALID,98,VALID,1.31133,
2011-03-31, 01:17:05,VALID,917.158,VALID,0,VALID,96.8784,VALID,0,VALID,19.8198,VALID,291,VALID,1.53398,
2011-03-31, 01:18:05,VALID,917.107,VALID,0,VALID,96.8784,VALID,0,VALID,19.8393,VALID,335,VALID,1.74492,
2011-03-31, 01:19:05,VALID,917.097,VALID,0,VALID,96.8555,VALID,0,VALID,19.8393,VALID,329,VALID,1.67344,
2011-03-31, 01:20:05,VALID,917.015,VALID,0,VALID,96.825,VALID,0,VALID,19.8393,VALID,101,VALID,1.17305,
2011-03-31, 01:21:05,VALID,917.087,VALID,0,VALID,96.8326,VALID,0,VALID,19.8198,VALID,35,VALID,1.60625,
2011-03-31, 01:22:05,VALID,917.105,VALID,0,VALID,96.8326,VALID,0,VALID,19.8603,VALID,43,VALID,0.746875,
2011-03-31, 01:23:05,VALID,917.04,VALID,0,VALID,96.8174,VALID,0,VALID,19.8393,VALID,72,VALID,1.84023,
2011-03-31, 01:24:05,VALID,917.076,VALID,0,VALID,96.8174,VALID,0,VALID,19.8393,VALID,30,VALID,1.96445,
2011-03-31, 01:25:05,VALID,917.04,VALID,0,VALID,96.8174,VALID,0,VALID,19.8393,VALID,189,VALID,1.44961,
2011-03-31, 01:26:05,VALID,916.957,VALID,0,VALID,96.8021,VALID,0,VALID,19.8198,VALID,32,VALID,1.67227,
2011-03-31, 01:27:05,VALID,917.071,VALID,0,VALID,96.764,VALID,0,VALID,19.8393,VALID,246,VALID,2.19961,
2011-03-31, 01:28:05,VALID,917.042,VALID,0,VALID,96.7259,VALID,0,VALID,19.8393,VALID,256,VALID,0.569922,
2011-03-31, 01:29:05,VALID,917.006,VALID,0,VALID,96.7259,VALID,0,VALID,19.8588,VALID,311,VALID,1.39805,
2011-03-31, 01:30:04,VALID,917.104,VALID,0,VALID,96.6268,VALID,0,VALID,19.8783,VALID,77,VALID,2.2125,
2011-03-31, 01:31:04,VALID,917.082,VALID,0,VALID,96.5963,VALID,0,VALID,19.8978,VALID,310,VALID,0.930859,
2011-03-31, 01:32:04,VALID,917.131,VALID,0,VALID,96.5734,VALID,0,VALID,19.8783,VALID,360,VALID,0.939844,
2011-03-31, 01:33:04,VALID,916.992,VALID,0,VALID,96.6039,VALID,0,VALID,19.8783,VALID,47,VALID,1.67148,
2011-03-31, 01:34:04,VALID,917.048,VALID,0,VALID,96.5963,VALID,0,VALID,19.8783,VALID,99,VALID,1.23477,
2011-03-31, 01:35:04,VALID,916.961,VALID,0,VALID,96.6039,VALID,0,VALID,19.8588,VALID,34,VALID,2.33906,
2011-03-31, 01:36:04,VALID,917.059,VALID,0,VALID,96.6039,VALID,0.107441,VALID,19.8573,VALID,2,VALID,1.60312,
2011-03-31, 01:37:04,VALID,916.953,VALID,0,VALID,96.6573,VALID,0,VALID,19.8783,VALID,35,VALID,3.44062,
2011-03-31, 01:38:04,VALID,916.926,VALID,0,VALID,96.6725,VALID,0,VALID,19.9173,VALID,26,VALID,1.83164,
2011-03-31, 01:39:04,VALID,916.907,VALID,0,VALID,96.6878,VALID,0,VALID,19.9173,VALID,13,VALID,1.91289,
2011-03-31, 01:40:04,VALID,916.96,VALID,0,VALID,96.6573,VALID,0,VALID,19.9158,VALID,53,VALID,2.09492,
2011-03-31, 01:41:04,VALID,916.918,VALID,0,VALID,96.6725,VALID,0,VALID,19.9173,VALID,48,VALID,1.43086,
2011-03-31, 01:42:04,VALID,916.993,VALID,0,VALID,96.6725,VALID,0,VALID,19.8963,VALID,283,VALID,1.26836,
2011-03-31, 01:43:04,VALID,917.016,VALID,0,VALID,96.6649,VALID,0.107441,VALID,19.8768,VALID,15,VALID,2.05469,
2011-03-31, 01:44:04,VALID,916.947,VALID,0,VALID,96.7107,VALID,0.107441,VALID,19.8768,VALID,48,VALID,2.01523,
2011-03-31, 01:45:04,VALID,916.987,VALID,0,VALID,96.7335,VALID,0,VALID,19.8978,VALID,29,VALID,0.535937,
2011-03-31, 01:46:04,VALID,916.783,VALID,0,VALID,96.7259,VALID,0,VALID,19.8978,VALID,65,VALID,1.76328,
2011-03-31, 01:47:04,VALID,916.775,VALID,0,VALID,96.7183,VALID,0.107441,VALID,19.8783,VALID,49,VALID,2.06953,
2011-03-31, 01:48:04,VALID,916.876,VALID,0,VALID,96.7564,VALID,0,VALID,19.8783,VALID,76,VALID,0.604688,
2011-03-31, 01:49:04,VALID,916.849,VALID,0,VALID,96.7488,VALID,0,VALID,19.8783,VALID,16,VALID,1.41172,
2011-03-31, 01:50:04,VALID,916.84,VALID,0,VALID,96.764,VALID,0.107441,VALID,19.8783,VALID,81,VALID,1.42148,
2011-03-31, 01:51:04,VALID,916.921,VALID,0,VALID,96.764,VALID,0,VALID,19.8588,VALID,219,VALID,1.98086,
2011-03-31, 01:52:04,VALID,916.836,VALID,0,VALID,96.7335,VALID,0,VALID,19.8408,VALID,253,VALID,0.991797,
2011-03-31, 01:53:04,VALID,916.836,VALID,0,VALID,96.7564,VALID,0,VALID,19.8213,VALID,87,VALID,1.83789,
2011-03-31, 01:54:04,VALID,916.853,VALID,0,VALID,96.7869,VALID,0,VALID,19.8408,VALID,20,VALID,1.53437,
2011-03-31, 01:55:04,VALID,916.885,VALID,0,VALID,96.7945,VALID,0,VALID,19.8198,VALID,9,VALID,0.867578,
2011-03-31, 01:56:04,VALID,916.808,VALID,0,VALID,96.8098,VALID,0,VALID,19.8198,VALID,53,VALID,1.55117,
2011-03-31, 01:57:04,VALID,916.836,VALID,0,VALID,96.8021,VALID,0,VALID,19.8198,VALID,131,VALID,0.803516,
2011-03-31, 01:58:04,VALID,916.828,VALID,0,VALID,96.8021,VALID,0,VALID,19.8408,VALID,74,VALID,0.236719,
2011-03-31, 01:59:04,VALID,916.824,VALID,0,VALID,96.8098,VALID,0,VALID,19.8198,VALID,317,VALID,1.75156,
2011-03-31, 02:00:04,VALID,916.822,VALID,0,VALID,96.8021,VALID,0,VALID,19.8213,VALID,31,VALID,0.976563,
2011-03-31, 02:01:04,VALID,916.753,VALID,0,VALID,96.7945,VALID,0,VALID,19.8018,VALID,47,VALID,1.03906,
2011-03-31, 02:02:04,VALID,916.775,VALID,0,VALID,96.8098,VALID,0,VALID,19.8018,VALID,18,VALID,1.13437,
2011-03-31, 02:03:04,VALID,916.796,VALID,0,VALID,96.825,VALID,0,VALID,19.7808,VALID,50,VALID,1.13594,
2011-03-31, 02:04:04,VALID,916.821,VALID,0,VALID,96.8021,VALID,0,VALID,19.7808,VALID,34,VALID,1.3918,
2011-03-31, 02:05:04,VALID,916.747,VALID,0,VALID,96.8174,VALID,0,VALID,19.7823,VALID,56,VALID,0.938281,
2011-03-31, 02:06:04,VALID,916.71,VALID,0,VALID,96.8098,VALID,0,VALID,19.7823,VALID,63,VALID,2.0957,
2011-03-31, 02:07:04,VALID,916.765,VALID,0,VALID,96.8479,VALID,0,VALID,19.7613,VALID,21,VALID,2.97266,
2011-03-31, 02:08:04,VALID,916.724,VALID,0,VALID,96.8403,VALID,0,VALID,19.7418,VALID,42,VALID,1.6082,
2011-03-31, 02:09:04,VALID,916.758,VALID,0,VALID,96.8403,VALID,0,VALID,19.7418,VALID,47,VALID,1.46445,
2011-03-31, 02:10:04,VALID,916.668,VALID,0,VALID,96.8555,VALID,0,VALID,19.7613,VALID,99,VALID,1.05859,
2011-03-31, 02:11:04,VALID,916.695,VALID,0,VALID,96.8707,VALID,0,VALID,19.7613,VALID,71,VALID,1.18164,
2011-03-31, 02:12:04,VALID,916.752,VALID,0,VALID,96.8555,VALID,0,VALID,19.7808,VALID,232,VALID,1.97383,
2011-03-31, 02:13:04,VALID,916.735,VALID,0,VALID,96.8784,VALID,0,VALID,19.7613,VALID,359,VALID,1.44883,
2011-03-31, 02:14:04,VALID,916.653,VALID,0,VALID,96.8326,VALID,0,VALID,19.7613,VALID,272,VALID,2.58594,
2011-03-31, 02:15:04,VALID,916.702,VALID,0,VALID,96.8555,VALID,0,VALID,19.8018,VALID,43,VALID,1.14023,
2011-03-31, 02:16:04,VALID,916.458,VALID,0,VALID,96.8098,VALID,0,VALID,19.7418,VALID,57,VALID,2.96992,
2011-03-31, 02:17:04,VALID,916.702,VALID,0,VALID,96.8555,VALID,0,VALID,19.7613,VALID,84,VALID,1.26055,
2011-03-31, 02:18:04,VALID,916.644,VALID,0,VALID,96.8403,VALID,0,VALID,19.8018,VALID,89,VALID,1.00195,
2011-03-31, 02:19:04,VALID,916.709,VALID,0,VALID,96.8098,VALID,0,VALID,19.7808,VALID,19,VALID,1.23711,
2011-03-31, 02:20:04,VALID,916.731,VALID,0,VALID,96.8174,VALID,0,VALID,19.7823,VALID,34,VALID,0.988281,
2011-03-31, 02:21:04,VALID,916.643,VALID,0,VALID,96.7869,VALID,0.107441,VALID,19.7598,VALID,352,VALID,1.43516,
2011-03-31, 02:22:04,VALID,916.661,VALID,0,VALID,96.8479,VALID,0,VALID,19.7598,VALID,178,VALID,2.04258,
2011-03-31, 02:23:04,VALID,916.573,VALID,0,VALID,96.825,VALID,0.107441,VALID,19.7808,VALID,71,VALID,2.08945,
2011-03-31, 02:24:04,VALID,916.633,VALID,0,VALID,96.8707,VALID,0,VALID,19.7793,VALID,280,VALID,0.480078,
2011-03-31, 02:25:04,VALID,916.628,VALID,0,VALID,96.8174,VALID,0.107441,VALID,19.7613,VALID,77,VALID,1.2332,
2011-03-31, 02:26:04,VALID,916.701,VALID,0,VALID,96.8555,VALID,0.107441,VALID,19.7808,VALID,251,VALID,0.642578,
2011-03-31, 02:27:04,VALID,916.67,VALID,0,VALID,96.825,VALID,0.107441,VALID,19.7808,VALID,62,VALID,2.40156,
2011-03-31, 02:28:04,VALID,916.661,VALID,0,VALID,96.8555,VALID,0,VALID,19.7613,VALID,196,VALID,1.27148,
2011-03-31, 02:29:04,VALID,916.697,VALID,0.2,VALID,96.886,VALID,0,VALID,19.7598,VALID,36,VALID,0.625781,
2011-03-31, 02:30:04,VALID,916.756,VALID,0,VALID,96.825,VALID,0,VALID,19.7208,VALID,277,VALID,0.865625,
2011-03-31, 02:31:04,VALID,916.66,VALID,0,VALID,96.8555,VALID,0,VALID,19.7418,VALID,4,VALID,1.2832,
2011-03-31, 02:32:04,VALID,916.607,VALID,0,VALID,96.8784,VALID,0.107441,VALID,19.7613,VALID,32,VALID,2.63828,
2011-03-31, 02:33:04,VALID,916.535,VALID,0,VALID,96.8555,VALID,0,VALID,19.7613,VALID,46,VALID,1.42305,
2011-03-31, 02:34:04,VALID,916.613,VALID,0,VALID,96.8021,VALID,0,VALID,19.7013,VALID,264,VALID,2.11055,
2011-03-31, 02:35:04,VALID,916.622,VALID,0,VALID,96.8174,VALID,0,VALID,19.7013,VALID,49,VALID,1.11133,
2011-03-31, 02:36:04,VALID,916.655,VALID,0,VALID,96.8555,VALID,0,VALID,19.7613,VALID,103,VALID,1.63516,
2011-03-31, 02:37:04,VALID,916.618,VALID,0,VALID,96.8555,VALID,0,VALID,19.7208,VALID,303,VALID,1.46797,
2011-03-31, 02:38:04,VALID,916.581,VALID,0,VALID,96.8403,VALID,0,VALID,19.7208,VALID,246,VALID,1.39531,
2011-03-31, 02:39:04,VALID,916.552,VALID,0,VALID,96.8403,VALID,0.107441,VALID,19.7403,VALID,165,VALID,0.905078,
2011-03-31, 02:40:04,VALID,916.588,VALID,0,VALID,96.8631,VALID,0.107441,VALID,19.7403,VALID,351,VALID,1.47305,
2011-03-31, 02:41:04,VALID,916.673,VALID,0,VALID,96.8707,VALID,0,VALID,19.7598,VALID,352,VALID,1.34453,
2011-03-31, 02:42:04,VALID,916.503,VALID,0,VALID,96.8326,VALID,0,VALID,19.7403,VALID,50,VALID,2.17695,
2011-03-31, 02:43:04,VALID,916.55,VALID,0,VALID,96.8555,VALID,0.107441,VALID,19.7598,VALID,87,VALID,1.48672,
2011-03-31, 02:44:04,VALID,916.473,VALID,0,VALID,96.8784,VALID,0,VALID,19.7598,VALID,217,VALID,2.47383,
2011-03-31, 02:45:04,VALID,916.53,VALID,0,VALID,96.9089,VALID,0.107441,VALID,19.7793,VALID,199,VALID,1.35,
2011-03-31, 02:46:04,VALID,916.542,VALID,0,VALID,96.886,VALID,0,VALID,19.7403,VALID,332,VALID,1.29219,
2011-03-31, 02:47:04,VALID,916.539,VALID,0,VALID,96.8707,VALID,0,VALID,19.7598,VALID,252,VALID,1.1375,
2011-03-31, 02:48:04,VALID,916.497,VALID,0,VALID,96.8784,VALID,0.107441,VALID,19.7793,VALID,253,VALID,0.490234,
2011-03-31, 02:49:04,VALID,916.524,VALID,0,VALID,96.8631,VALID,0.107441,VALID,19.7598,VALID,160,VALID,0.850391,
2011-03-31, 02:50:04,VALID,916.45,VALID,0,VALID,96.8707,VALID,0.107441,VALID,19.7793,VALID,31,VALID,0.970703,
2011-03-31, 02:51:04,VALID,916.428,VALID,0,VALID,96.8707,VALID,0,VALID,19.7808,VALID,331,VALID,1.07227,
2011-03-31, 02:52:04,VALID,916.452,VALID,0,VALID,96.9012,VALID,0,VALID,19.7823,VALID,3,VALID,0.569531,
2011-03-31, 02:53:04,VALID,916.463,VALID,0,VALID,96.886,VALID,0,VALID,19.7613,VALID,14,VALID,2.45469,
2011-03-31, 02:54:04,VALID,916.431,VALID,0,VALID,96.9089,VALID,0,VALID,19.7613,VALID,42,VALID,1.85703,
2011-03-31, 02:55:04,VALID,916.477,VALID,0,VALID,96.9165,VALID,0,VALID,19.7808,VALID,26,VALID,1.98477,
2011-03-31, 02:56:04,VALID,916.424,VALID,0,VALID,96.9241,VALID,0,VALID,19.7613,VALID,207,VALID,0.66875,
2011-03-31, 02:57:04,VALID,916.42,VALID,0,VALID,96.9012,VALID,0,VALID,19.7613,VALID,236,VALID,1.78359,
2011-03-31, 02:58:04,VALID,916.447,VALID,0,VALID,96.8784,VALID,0,VALID,19.7418,VALID,342,VALID,3.10664,
2011-03-31, 02:59:04,VALID,916.504,VALID,0,VALID,96.9012,VALID,0,VALID,19.7613,VALID,337,VALID,1.66992,
2011-03-31, 03:00:04,VALID,916.434,VALID,0,VALID,96.886,VALID,0,VALID,19.7418,VALID,307,VALID,2.05,
2011-03-31, 03:01:04,VALID,916.39,VALID,0,VALID,96.8936,VALID,0,VALID,19.7418,VALID,66,VALID,1.73672,
2011-03-31, 03:02:04,VALID,916.391,VALID,0,VALID,96.9317,VALID,0,VALID,19.7613,VALID,65,VALID,1.24492,
2011-03-31, 03:03:04,VALID,916.396,VALID,0,VALID,96.9165,VALID,0,VALID,19.7418,VALID,258,VALID,0.510156,
2011-03-31, 03:04:04,VALID,916.397,VALID,0,VALID,96.9165,VALID,0,VALID,19.7613,VALID,26,VALID,1.4793,
2011-03-31, 03:05:04,VALID,916.373,VALID,0,VALID,96.886,VALID,0,VALID,19.7628,VALID,135,VALID,1.05273,
2011-03-31, 03:06:04,VALID,916.347,VALID,0,VALID,96.9089,VALID,0,VALID,19.7418,VALID,225,VALID,0.919531,
2011-03-31, 03:07:04,VALID,916.361,VALID,0,VALID,96.8936,VALID,0,VALID,19.7223,VALID,338,VALID,1.99805,
2011-03-31, 03:08:04,VALID,916.301,VALID,0,VALID,96.8479,VALID,0,VALID,19.7028,VALID,34,VALID,1.80547,
2011-03-31, 03:09:04,VALID,916.36,VALID,0,VALID,96.8555,VALID,0,VALID,19.7028,VALID,41,VALID,0.659766,
2011-03-31, 03:10:04,VALID,916.402,VALID,0,VALID,96.8479,VALID,0,VALID,19.7028,VALID,352,VALID,2.34023,
2011-03-31, 03:11:04,VALID,916.306,VALID,0,VALID,96.8326,VALID,0,VALID,19.7028,VALID,14,VALID,1.6668,
2011-03-31, 03:12:04,VALID,916.29,VALID,0,VALID,96.8326,VALID,0,VALID,19.7028,VALID,343,VALID,0.619922,
2011-03-31, 03:13:04,VALID,916.302,VALID,0,VALID,96.825,VALID,0,VALID,19.7223,VALID,28,VALID,0.757422,
2011-03-31, 03:14:04,VALID,916.26,VALID,0,VALID,96.8098,VALID,0,VALID,19.7223,VALID,291,VALID,1.94062,
2011-03-31, 03:15:04,VALID,916.323,VALID,0,VALID,96.8021,VALID,0,VALID,19.7223,VALID,60,VALID,1.07656,
2011-03-31, 03:16:04,VALID,916.303,VALID,0,VALID,96.7945,VALID,0,VALID,19.7223,VALID,358,VALID,1.44453,
2011-03-31, 03:17:04,VALID,916.244,VALID,0,VALID,96.7716,VALID,0,VALID,19.7223,VALID,15,VALID,1.70664,
2011-03-31, 03:18:04,VALID,916.275,VALID,0,VALID,96.7945,VALID,0,VALID,19.7223,VALID,41,VALID,1.25117,
2011-03-31, 03:19:04,VALID,916.241,VALID,0,VALID,96.7716,VALID,0,VALID,19.7028,VALID,68,VALID,1.3293,
2011-03-31, 03:20:04,VALID,916.273,VALID,0,VALID,96.8098,VALID,0,VALID,19.7223,VALID,299,VALID,1.07109,
2011-03-31, 03:21:04,VALID,916.248,VALID,0,VALID,96.764,VALID,0,VALID,19.7028,VALID,39,VALID,1.39102,
2011-03-31, 03:22:04,VALID,916.312,VALID,0,VALID,96.7869,VALID,0,VALID,19.7028,VALID,28,VALID,1.14375,
2011-03-31, 03:23:04,VALID,916.312,VALID,0,VALID,96.7716,VALID,0,VALID,19.7028,VALID,29,VALID,1.31328,
2011-03-31, 03:24:04,VALID,916.249,VALID,0,VALID,96.7716,VALID,0,VALID,19.6833,VALID,41,VALID,1.81406,
2011-03-31, 03:25:04,VALID,916.281,VALID,0,VALID,96.7869,VALID,0,VALID,19.6833,VALID,273,VALID,1.73789,
2011-03-31, 03:26:04,VALID,916.179,VALID,0,VALID,96.7183,VALID,0,VALID,19.6638,VALID,20,VALID,2.7668,
2011-03-31, 03:27:04,VALID,916.201,VALID,0,VALID,96.7564,VALID,0,VALID,19.6638,VALID,26,VALID,2.75391,
2011-03-31, 03:28:04,VALID,916.212,VALID,0,VALID,96.7564,VALID,0,VALID,19.7028,VALID,30,VALID,1.75937,
2011-03-31, 03:29:04,VALID,916.112,VALID,0,VALID,96.7259,VALID,0,VALID,19.6638,VALID,64,VALID,1.69414,
2011-03-31, 03:30:04,VALID,916.19,VALID,0,VALID,96.7335,VALID,0,VALID,19.6638,VALID,321,VALID,0.835547,
2011-03-31, 03:31:04,VALID,916.233,VALID,0,VALID,96.7183,VALID,0,VALID,19.6638,VALID,44,VALID,0.754297,
2011-03-31, 03:32:04,VALID,916.234,VALID,0,VALID,96.6802,VALID,0,VALID,19.6443,VALID,279,VALID,0.342578,
2011-03-31, 03:33:04,VALID,916.177,VALID,0,VALID,96.6802,VALID,0,VALID,19.6443,VALID,66,VALID,1.09102,
2011-03-31, 03:34:04,VALID,916.208,VALID,0,VALID,96.6725,VALID,0,VALID,19.6638,VALID,79,VALID,0.715234,
2011-03-31, 03:35:04,VALID,916.226,VALID,0,VALID,96.642,VALID,0,VALID,19.6443,VALID,40,VALID,1.28867,
2011-03-31, 03:36:04,VALID,916.081,VALID,0,VALID,96.6192,VALID,0,VALID,19.6248,VALID,101,VALID,0.795313,
2011-03-31, 03:37:04,VALID,916.128,VALID,0,VALID,96.6344,VALID,0,VALID,19.6248,VALID,101,VALID,0.540234,
2011-03-31, 03:38:04,VALID,916.16,VALID,0,VALID,96.5887,VALID,0,VALID,19.6053,VALID,5,VALID,0.989844,
2011-03-31, 03:39:04,VALID,916.076,VALID,0,VALID,96.5582,VALID,0,VALID,19.5858,VALID,54,VALID,1.74453,
2011-03-31, 03:40:04,VALID,916.093,VALID,0,VALID,96.5658,VALID,0,VALID,19.5858,VALID,337,VALID,1.51367,
2011-03-31, 03:41:04,VALID,916.055,VALID,0,VALID,96.4972,VALID,0,VALID,19.5858,VALID,14,VALID,1.58125,
2011-03-31, 03:42:04,VALID,916.076,VALID,0,VALID,96.4438,VALID,0,VALID,19.5843,VALID,26,VALID,1.95977,
2011-03-31, 03:43:04,VALID,916.103,VALID,0,VALID,96.36,VALID,0,VALID,19.5858,VALID,28,VALID,1.59492,
2011-03-31, 03:44:04,VALID,916.049,VALID,0,VALID,96.299,VALID,0,VALID,19.6053,VALID,39,VALID,0.858594,
2011-03-31, 03:45:04,VALID,916.083,VALID,0,VALID,96.2685,VALID,0,VALID,19.6053,VALID,214,VALID,1.27734,